Burlington, WA
on Friday, November 30, 2012

Friday
Previous Day Next Day
Daily Summary
 ActualAverage (KBLI)Record (KBLI)
Temperature
Mean Temperature °F 40°F  
Max Temperature 55°F 46°F 58°F (1958)
Min Temperature 48°F 34°F 18°F (1952)
Degree Days
Heating Degree Days 14 25  
Month to date heating degree days 653  
Cooling Degree Days 0 0  
Month to date cooling degree days 0  
Year to date cooling degree days 42  
Growing Degree Days2 (Base °F )  
Moisture
Dew Point 48°F   
Average Humidity 89    
Maximum Humidity 100    
Minimum Humidity 77    
Precipitation
Precipitation 0.19 in 0.19 in 1.26 in (1999)
Month to date precipitation 5.80  
Year to date precipitation 31.61  
Wind
Wind Speed 12 mph   
Max Wind Speed 17 mph   
Max Gust Speed 31 mph   
Visibility 9 miles   
Events     

Key: T is trace of precipitation, MM is missing value
Source: NWS Daily Summary
Time(PST)TemperatureDew PointHumidity Pressure Visibility Wind DirectionWind SpeedGust SpeedPrecipitationEvents Conditions
12:15 AM 51.8°F 46.4°F 82% 29.43 in 10.0 miles East 8.1 mph - 0.00 in   Overcast
12:35 AM 50.0°F 46.4°F 87% 29.42 in 10.0 miles ENE 12.7 mph - 0.00 in   Overcast
12:55 AM 50.0°F 46.4°F 87% 29.42 in 10.0 miles East 10.4 mph - 0.00 in   Mostly Cloudy
1:15 AM 50.0°F 46.4°F 87% 29.42 in 10.0 miles ENE 12.7 mph - 0.00 in   Overcast
1:35 AM 51.8°F 46.4°F 82% 29.42 in 10.0 miles East 4.6 mph - 0.00 in   Overcast
1:55 AM 51.8°F 46.4°F 82% 29.42 in 10.0 miles SSE 5.8 mph - 0.00 in   Overcast
2:15 AM 51.8°F 46.4°F 82% 29.42 in 7.0 miles SE 11.5 mph 19.6 mph 0.00 in   Overcast
2:35 AM 50.0°F 48.2°F 94% 29.43 in 10.0 miles SE 13.8 mph 17.3 mph 0.00 in   Mostly Cloudy
2:55 AM 48.2°F 48.2°F 100% 29.41 in 10.0 miles SE 15.0 mph 21.9 mph 0.00 in   Overcast
3:15 AM 48.2°F 48.2°F 100% 29.41 in 10.0 miles East 15.0 mph - 0.00 in   Overcast
3:35 AM 48.2°F 48.2°F 100% 29.39 in 10.0 miles ESE 12.7 mph 21.9 mph 0.00 in   Overcast
3:55 AM 48.2°F 48.2°F 100% 29.38 in 10.0 miles East 12.7 mph 23.0 mph 0.00 in   Overcast
4:15 AM 50.0°F 46.4°F 87% 29.38 in 10.0 miles SE 6.9 mph - 0.00 in   Overcast
4:35 AM 50.0°F 46.4°F 87% 29.37 in 10.0 miles East 11.5 mph - 0.00 in   Mostly Cloudy
4:55 AM 50.0°F 46.4°F 87% 29.37 in 10.0 miles East 10.4 mph - 0.00 in   Mostly Cloudy
5:15 AM 51.8°F 46.4°F 82% 29.37 in 10.0 miles ESE 15.0 mph 19.6 mph 0.00 in   Overcast
5:35 AM 53.6°F 46.4°F 77% 29.37 in 10.0 miles ESE 11.5 mph - 0.00 in   Overcast
5:55 AM 51.8°F 46.4°F 82% 29.36 in 10.0 miles ESE 12.7 mph - 0.00 in   Overcast
6:15 AM 51.8°F 46.4°F 82% 29.35 in 10.0 miles ESE 11.5 mph - 0.00 in   Mostly Cloudy
6:35 AM 53.6°F 46.4°F 77% 29.34 in 10.0 miles East 13.8 mph 19.6 mph 0.00 in   Mostly Cloudy
6:55 AM 53.6°F 46.4°F 77% 29.35 in 10.0 miles ESE 13.8 mph 21.9 mph 0.00 in   Mostly Cloudy
7:15 AM 53.6°F 46.4°F 77% 29.35 in 10.0 miles ESE 10.4 mph - 0.00 in   Mostly Cloudy
7:35 AM 53.6°F 46.4°F 77% 29.37 in 7.0 miles South 9.2 mph - 0.00 in   Overcast
7:55 AM 51.8°F 48.2°F 88% 29.37 in 6.0 miles SSE 6.9 mph - 0.01 in   Overcast
8:15 AM 51.8°F 48.2°F 88% 29.39 in 10.0 miles SSE 11.5 mph 17.3 mph 0.00 in   Overcast
8:35 AM 51.8°F 48.2°F 88% 29.39 in 5.0 miles SE 10.4 mph - 0.00 in   Overcast
8:55 AM 51.8°F 48.2°F 88% 29.39 in 10.0 miles SSE 16.1 mph 24.2 mph 0.01 in   Overcast
9:15 AM 51.8°F 48.2°F 88% 29.40 in 10.0 miles SE 13.8 mph 20.7 mph 0.00 in   Mostly Cloudy
9:35 AM 53.6°F 48.2°F 82% 29.40 in 10.0 miles SE 16.1 mph 24.2 mph 0.00 in   Mostly Cloudy
9:55 AM 53.6°F 48.2°F 82% 29.41 in 10.0 miles SE 13.8 mph 26.5 mph 0.00 in   Overcast
10:15 AM 55.4°F 48.2°F 77% 29.41 in 10.0 miles SSE 13.8 mph 20.7 mph 0.00 in   Mostly Cloudy
10:35 AM 55.4°F 48.2°F 77% 29.41 in 10.0 miles South 13.8 mph 25.3 mph 0.00 in   Overcast
10:55 AM 55.4°F 48.2°F 77% 29.41 in 10.0 miles SE 15.0 mph 21.9 mph 0.00 in   Overcast
11:15 AM 55.4°F 48.2°F 77% 29.41 in 10.0 miles SSE 17.3 mph 26.5 mph 0.00 in   Mostly Cloudy
11:35 AM 53.6°F 48.2°F 82% 29.41 in 8.0 miles SSE 13.8 mph 25.3 mph 0.00 in   Overcast
11:55 AM 53.6°F 50.0°F 88% 29.41 in 8.0 miles SSE 10.4 mph 16.1 mph 0.00 in   Overcast
12:15 PM 53.6°F 48.2°F 82% 29.41 in 10.0 miles SSE 16.1 mph 23.0 mph 0.00 in   Overcast
12:35 PM 55.4°F 48.2°F 77% 29.41 in 10.0 miles South 11.5 mph 21.9 mph 0.00 in   Mostly Cloudy
12:55 PM 53.6°F 48.2°F 82% 29.40 in 10.0 miles SSE 12.7 mph 18.4 mph 0.00 in   Scattered Clouds
1:15 PM 53.6°F 50.0°F 88% 29.41 in 10.0 miles SSE 12.7 mph 21.9 mph 0.00 in   Mostly Cloudy
1:35 PM 53.6°F 48.2°F 82% 29.40 in 10.0 miles SSE 15.0 mph 20.7 mph 0.00 in   Mostly Cloudy
1:55 PM 53.6°F 48.2°F 82% 29.41 in 5.0 miles SSE 13.8 mph 18.4 mph 0.00 in   Overcast
2:15 PM 53.6°F 50.0°F 88% 29.40 in 8.0 miles SSE 11.5 mph 19.6 mph 0.00 in   Overcast
2:35 PM 53.6°F 50.0°F 88% 29.40 in 10.0 miles SE 12.7 mph - 0.00 in   Mostly Cloudy
2:55 PM 51.8°F 51.8°F 100% 29.42 in 3.0 miles South 13.8 mph 27.6 mph 0.04 in   Overcast
3:15 PM 51.8°F 51.8°F 100% 29.42 in 4.0 miles SE 10.4 mph 16.1 mph 0.04 in   Overcast
3:35 PM 51.8°F 51.8°F 100% 29.42 in 4.0 miles SE 11.5 mph 16.1 mph 0.06 in   Overcast
3:55 PM 51.8°F 51.8°F 100% 29.43 in 7.0 miles SE 11.5 mph 18.4 mph 0.06 in   Overcast
4:15 PM 51.8°F 51.8°F 100% 29.43 in 5.0 miles SSE 11.5 mph 21.9 mph 0.01 in   Overcast
4:35 PM 51.8°F 51.8°F 100% 29.42 in 9.0 miles SE 11.5 mph 17.3 mph 0.02 in   Overcast
4:55 PM 51.8°F 51.8°F 100% 29.42 in 7.0 miles SSE 10.4 mph 17.3 mph 0.02 in   Mostly Cloudy
5:15 PM 51.8°F 51.8°F 100% 29.42 in 8.0 miles SSE 9.2 mph 19.6 mph 0.01 in   Mostly Cloudy
5:35 PM 51.8°F 51.8°F 100% 29.42 in 10.0 miles SE 11.5 mph 17.3 mph 0.01 in   Overcast
5:55 PM 51.8°F 51.8°F 100% 29.42 in 7.0 miles SSE 11.5 mph 17.3 mph 0.01 in   Overcast
6:15 PM 51.8°F 51.8°F 100% 29.42 in 10.0 miles SSE 11.5 mph 18.4 mph 0.00 in   Overcast
6:35 PM 51.8°F 51.8°F 100% 29.42 in 10.0 miles SE 12.7 mph 21.9 mph 0.01 in   Mostly Cloudy
6:55 PM 51.8°F 51.8°F 100% 29.42 in 9.0 miles SSE 15.0 mph 20.7 mph 0.01 in   Mostly Cloudy
7:15 PM 51.8°F 50.0°F 94% 29.42 in 10.0 miles SSE 15.0 mph 23.0 mph 0.00 in   Overcast
7:35 PM 50.0°F 48.2°F 94% 29.41 in 10.0 miles SSE 13.8 mph 25.3 mph 0.00 in   Mostly Cloudy
7:55 PM 50.0°F 48.2°F 94% 29.41 in 10.0 miles SSE 16.1 mph 29.9 mph 0.00 in   Mostly Cloudy
8:15 PM 50.0°F 48.2°F 94% 29.41 in 10.0 miles SSE 15.0 mph 31.1 mph 0.00 in   Overcast
8:35 PM 50.0°F 48.2°F 94% 29.41 in 10.0 miles SE 16.1 mph 27.6 mph 0.00 in   Mostly Cloudy
8:55 PM 51.8°F 48.2°F 88% 29.41 in 10.0 miles SE 16.1 mph 24.2 mph 0.00 in   Mostly Cloudy
9:15 PM 50.0°F 48.2°F 94% 29.41 in 10.0 miles SE 15.0 mph 19.6 mph 0.00 in   Mostly Cloudy
9:35 PM 51.8°F 48.2°F 88% 29.41 in 10.0 miles SE 10.4 mph 18.4 mph 0.00 in   Mostly Cloudy
9:55 PM 51.8°F 48.2°F 88% 29.41 in 10.0 miles SE 11.5 mph 24.2 mph 0.00 in   Mostly Cloudy
10:15 PM 51.8°F 48.2°F 88% 29.39 in 10.0 miles ESE 16.1 mph 21.9 mph 0.00 in   Mostly Cloudy
10:35 PM 51.8°F 46.4°F 82% 29.39 in 10.0 miles ESE 15.0 mph 24.2 mph 0.00 in   Overcast
10:55 PM 51.8°F 46.4°F 82% 29.39 in 10.0 miles SE 16.1 mph 24.2 mph 0.00 in   Overcast
11:15 PM 51.8°F 46.4°F 82% 29.39 in 10.0 miles ESE 11.5 mph - 0.00 in   Mostly Cloudy
11:35 PM 50.0°F 48.2°F 94% 29.40 in 6.0 miles SE 9.2 mph - 0.01 in   Overcast
11:55 PM 48.2°F 48.2°F 100% 29.40 in 5.0 miles SE 13.8 mph 18.4 mph 0.03 in   Mostly Cloudy
Moon Phase
Nov. 30 Dec. 06 Dec. 13 Dec. 20 Dec. 28
Sunrise:07:39 AM (PST) Moon Rise:06:18 PM (PST)11/30
Sunset:04:17 PM (PST) Moon Set:09:14 AM (PST)11/30

Copyright © 2014 The Weather Underground, Inc.